Back to catalog

STARLINK-3311

AliveCommunicationsVLEO
NORAD 50849·PAYLOAD·🇺🇸 United States

Launched Jan 6, 2022 from Cape Canaveral Space Force Station

Loading…

Next Passes (next 24 hours)

TLE

FreshSource: CelesTrak SupGP

Epoch: Sep 14, 2026, 13:28 UTC

1 50849C 22001AY  26257.56159722 -.00029568  00000+0 -87377-3 0  2573
2 50849  53.1595  37.1240 0001219  83.0378 231.4201 15.34399349    19

Track STARLINK-3311 in real time with AllMySat

Download on the App Store